DW3400 Frejlev DK current weather conditions

sailwx.info

Wind from 180

Air temperature 13.3° C
Dewpoint 12.1° C

Last reported at 2019-Aug-22 04:05 UTC.
Time now 2019-Aug-22 04:51 UTC

Location: N 54°42' E 011°46'.
View on Google Maps.

See reports from other nearby stations

  
Tides and Currents Weather Stations Pressure Air Temp Water Temp Dewpoint Dewpoint Depression Visibility Wind Speed Wind Dir Waves Ship Positions
date/time (UTC)wind fromknots sea level pressurealtimeterstation pressurevisibilityair tempwater tempwave heightnotes
2019-Aug-22 04:05 180 13.3
2019-Aug-22 04:00 180 13.3
2019-Aug-22 03:55 180 13.3
2019-Aug-22 03:50 180 13.3
2019-Aug-22 03:45 180 13.3
2019-Aug-22 03:40 180 13.3
2019-Aug-22 03:35 180 13.3
2019-Aug-22 03:30 180 13.3
2019-Aug-22 03:15 180 13.3
2019-Aug-22 03:05 180 13.3
2019-Aug-22 03:00 180 13.3
2019-Aug-22 02:45 225 0 gusting 2 12.8
2019-Aug-22 02:40 180 0 gusting 2 12.8
2019-Aug-22 02:35 218 0 gusting 2 12.8
2019-Aug-22 02:30 181 0 gusting 2 12.8
2019-Aug-22 02:20 180 12.8
2019-Aug-22 02:15 180 12.8
2019-Aug-22 02:00 180 12.8
2019-Aug-22 01:55 180 12.8
2019-Aug-22 01:50 180 12.8
2019-Aug-22 01:45 180 12.8
2019-Aug-22 01:40 180 12.8
2019-Aug-22 01:35 180 12.8
2019-Aug-22 01:25 180 12.8
2019-Aug-22 01:20 180 12.8
2019-Aug-22 01:10 180 13.3
2019-Aug-22 01:05 180 12.8
2019-Aug-22 01:00 180 12.8
2019-Aug-22 00:55 180 12.8
2019-Aug-22 00:45 180 13.3
2019-Aug-22 00:40 225 13.3
2019-Aug-22 00:35 225 0 gusting 0 13.3
2019-Aug-22 00:30 225 13.3
2019-Aug-22 00:15 225 13.3
2019-Aug-22 00:10 225 13.3
2019-Aug-22 00:00 225 13.3
2019-Aug-21 23:55 225 13.3
2019-Aug-21 23:45 225 13.3
2019-Aug-21 23:40 225 13.3
2019-Aug-21 23:35 225 13.3
2019-Aug-21 23:30 225 13.3
2019-Aug-21 23:25 225 13.3
2019-Aug-21 23:20 225 13.3
2019-Aug-21 23:15 225 13.9
2019-Aug-21 23:00 225 13.9
2019-Aug-21 22:55 225 13.9
2019-Aug-21 22:50 225 14.4
2019-Aug-21 22:45 225 14.4
2019-Aug-21 22:40 225 14.4
2019-Aug-21 22:35 225 14.4
2019-Aug-21 22:30 225 14.4
2019-Aug-21 22:25 225 14.4
2019-Aug-21 22:20 225 14.4
2019-Aug-21 22:15 225 14.4
2019-Aug-21 22:10 225 14.4
2019-Aug-21 22:00 225 15.0
2019-Aug-21 21:55 225 15.0
2019-Aug-21 21:30 225 15.0
2019-Aug-21 21:20 225 15.6
2019-Aug-21 21:05 225 15.6
2019-Aug-21 20:55 225 15.6
2019-Aug-21 20:50 225 15.6
2019-Aug-21 20:40 225 16.1
2019-Aug-21 20:35 225 16.1
2019-Aug-21 20:30 225 16.1
2019-Aug-21 20:20 225 16.7
2019-Aug-21 20:10 225 16.7
2019-Aug-21 20:05 225 16.7
2019-Aug-21 19:50 180 17.2
2019-Aug-21 19:45 180 0 gusting 0 17.2
2019-Aug-21 19:40 180 17.2
2019-Aug-21 19:35 139 17.8
2019-Aug-21 19:30 270 17.8
2019-Aug-21 19:15 270 18.3
2019-Aug-21 19:10 270 18.3
2019-Aug-21 19:05 270 18.3
2019-Aug-21 18:50 270 18.9
2019-Aug-21 18:45 228 18.9
2019-Aug-21 18:40 270 19.4
2019-Aug-21 18:35 270 19.4
2019-Aug-21 18:25 183 19.4
2019-Aug-21 18:15 222 20.0
2019-Aug-21 18:10 180 20.0
2019-Aug-21 18:05 225 20.0
2019-Aug-21 18:00 225 20.0
2019-Aug-21 17:50 290 0 gusting 4 20.0
2019-Aug-21 17:45 270 0 gusting 4 20.6
2019-Aug-21 17:40 228 0 gusting 5 20.6
2019-Aug-21 17:35 264 0 gusting 4 20.6
2019-Aug-21 17:30 288 0 gusting 5 20.6
2019-Aug-21 17:25 270 1 gusting 5 20.6
2019-Aug-21 17:20 315 1 gusting 5 20.6
2019-Aug-21 17:15 184 1 gusting 6 21.1
2019-Aug-21 17:10 270 2 gusting 5 21.1
2019-Aug-21 16:50 296 0 gusting 6 21.7
2019-Aug-21 16:40 250 2 gusting 6 21.7
2019-Aug-21 16:35 276 1 gusting 6 22.2
2019-Aug-21 16:30 204 2 gusting 6 22.2
2019-Aug-21 16:20 348 2 gusting 8 22.2
2019-Aug-21 16:10 315 2 gusting 8 22.2
2019-Aug-21 15:55 285 1 gusting 8 22.8
2019-Aug-21 15:50 291 2 gusting 7 22.8
2019-Aug-21 15:45 307 1 gusting 7 22.8
2019-Aug-21 15:40 227 2 gusting 7 22.8
2019-Aug-21 15:35 337 3 gusting 8 22.8
2019-Aug-21 15:30 264 3 gusting 6 22.8
2019-Aug-21 15:25 293 1 gusting 6 22.8
2019-Aug-21 15:20 270 2 gusting 8 22.8
2019-Aug-21 15:10 313 3 gusting 6 22.8
2019-Aug-21 15:05 225 2 gusting 6 22.8
2019-Aug-21 14:50 270 2 gusting 5 23.3
2019-Aug-21 14:45 251 2 gusting 10 23.3
2019-Aug-21 14:40 310 2 gusting 8 22.8
2019-Aug-21 14:35 270 1 gusting 6 22.8
2019-Aug-21 14:30 137 3 gusting 10 22.8
2019-Aug-21 14:20 273 2 gusting 6 22.2
2019-Aug-21 14:15 090 2 gusting 10 22.2
2019-Aug-21 13:55 275 1 gusting 7 21.1
2019-Aug-21 13:45 272 2 gusting 5 21.1
2019-Aug-21 13:40 271 0 gusting 5 21.1
2019-Aug-21 13:35 182 1 gusting 5 21.1
2019-Aug-21 13:15 294 1 gusting 6 21.7
2019-Aug-21 13:10 015 2 gusting 6 21.7
2019-Aug-21 13:05 270 2 gusting 6 22.8
2019-Aug-21 13:00 315 2 gusting 6 22.8
2019-Aug-21 12:50 334 1 gusting 7 22.8
2019-Aug-21 12:45 310 2 gusting 11 22.8
2019-Aug-21 12:40 045 1 gusting 6 22.2
2019-Aug-21 12:35 313 2 gusting 8 22.2
2019-Aug-21 12:20 315 2 gusting 6 21.1
2019-Aug-21 12:10 231 1 gusting 6 20.6
2019-Aug-21 12:05 225 0 gusting 2 20.6
2019-Aug-21 12:00 318 0 gusting 6 20.0
2019-Aug-21 11:55 267 2 gusting 6 20.0
2019-Aug-21 11:50 267 0 gusting 5 20.0
2019-Aug-21 11:45 225 0 gusting 5 20.0
2019-Aug-21 11:40 041 0 gusting 6 20.0
2019-Aug-21 11:25 357 0 gusting 4 20.0
2019-Aug-21 11:20 354 1 gusting 5 20.6
2019-Aug-21 11:15 270 1 gusting 5 21.1
2019-Aug-21 11:10 315 1 gusting 8 21.7
2019-Aug-21 11:00 270 2 gusting 8 21.7
2019-Aug-21 10:50 224 1 gusting 8 21.1
2019-Aug-21 10:45 045 2 gusting 7 21.1
2019-Aug-21 10:35 312 2 gusting 8 20.6
2019-Aug-21 10:25 225 4 gusting 11 20.6
2019-Aug-21 10:20 228 4 gusting 7 20.0
2019-Aug-21 10:15 312 4 gusting 10 20.6
2019-Aug-21 10:10 246 1 gusting 6 20.6
2019-Aug-21 10:05 135 2 gusting 6 20.6
2019-Aug-21 09:55 219 3 gusting 12 20.0
2019-Aug-21 09:50 182 2 gusting 12 19.4
2019-Aug-21 09:45 358 0 gusting 6 19.4
2019-Aug-21 09:40 204 0 gusting 6 19.4
2019-Aug-21 09:35 225 2 gusting 7 19.4
2019-Aug-21 09:25 311 1 gusting 8 20.0
2019-Aug-21 09:20 006 3 gusting 8 20.0
2019-Aug-21 09:15 097 2 gusting 11 20.0
2019-Aug-21 09:10 267 2 gusting 6 20.0
2019-Aug-21 08:55 084 4 gusting 8 19.4
2019-Aug-21 08:50 245 3 gusting 13 19.4
2019-Aug-21 08:40 251 3 gusting 7 19.4
2019-Aug-21 08:35 270 3 gusting 8 19.4
2019-Aug-21 08:20 311 2 gusting 6 19.4
2019-Aug-21 08:10 264 1 gusting 6 18.9
2019-Aug-21 08:05 315 2 gusting 6 18.9
2019-Aug-21 08:00 269 1 gusting 7 18.9
2019-Aug-21 07:55 294 2 gusting 6 18.3
2019-Aug-21 07:50 222 2 gusting 7 18.3
2019-Aug-21 07:45 205 2 gusting 11 18.3
2019-Aug-21 07:40 269 2 gusting 8 18.3
2019-Aug-21 07:35 314 1 gusting 6 18.3
2019-Aug-21 07:25 028 3 gusting 8 18.3
2019-Aug-21 07:20 222 4 gusting 7 18.3
2019-Aug-21 07:05 270 0 gusting 4 17.8
2019-Aug-21 06:55 199 2 gusting 6 17.8
2019-Aug-21 06:50 225 1 gusting 5 17.8
2019-Aug-21 06:45 220 1 gusting 6 17.2
2019-Aug-21 06:35 358 2 gusting 6 16.7
2019-Aug-21 06:30 270 1 gusting 4 16.7
2019-Aug-21 06:25 266 0 gusting 5 16.7
2019-Aug-21 06:20 186 0 gusting 4 16.7
2019-Aug-21 06:15 269 1 gusting 5 16.7
2019-Aug-21 06:05 135 0 gusting 0 16.1
2019-Aug-21 06:00 135 0 gusting 4 16.1
2019-Aug-21 05:55 270 1 gusting 4 16.1
2019-Aug-21 05:50 265 1 gusting 4 15.6
2019-Aug-21 05:45 225 15.6
2019-Aug-21 05:40 227 0 gusting 2 15.6
2019-Aug-21 05:35 225 0 gusting 1 15.6
2019-Aug-21 05:25 180 15.0
2019-Aug-21 05:20 180 15.0
2019-Aug-21 05:15 180 15.0
2019-Aug-21 05:10 267 0 gusting 2 14.4
2019-Aug-21 05:05 225 0 gusting 1 14.4
2019-Aug-21 04:55 248 0 gusting 1 14.4
2019-Aug-21 04:50 248 14.4
2019-Aug-21 04:45 315 0 gusting 0 14.4
2019-Aug-21 04:40 225 14.4
2019-Aug-21 04:30 225 13.9
2019-Aug-21 04:20 225 0 gusting 2 13.9
2019-Aug-21 04:15 225 0 gusting 1 13.9
2019-Aug-21 04:05 248 13.9
2019-Aug-21 03:55 248 13.9
2019-Aug-21 03:50 248 13.9
2019-Aug-21 03:45 248 0 gusting 2 14.4
2019-Aug-21 03:40 180 14.4
2019-Aug-21 03:35 181 0 gusting 1 14.4
2019-Aug-21 03:30 202 14.4
2019-Aug-21 03:25 202 14.4
2019-Aug-21 03:20 202 14.4
2019-Aug-21 03:15 202 0 gusting 5 14.4
2019-Aug-21 03:10 187 0 gusting 2 14.4
2019-Aug-21 03:05 225 0 gusting 1 14.4
2019-Aug-21 03:00 225 0 gusting 5 14.4
2019-Aug-21 02:55 225 0 gusting 2 14.4
2019-Aug-21 02:45 180 0 gusting 1 14.4
2019-Aug-21 02:25 046 0 gusting 1 14.4
2019-Aug-21 02:20 270 0 gusting 2 14.4
2019-Aug-21 01:55 315 14.4
2019-Aug-21 01:50 270 14.4
2019-Aug-21 01:45 270 14.4
2019-Aug-21 01:40 270 15.0
2019-Aug-21 01:35 270 15.0
2019-Aug-21 01:20 273 15.0
2019-Aug-21 01:15 315 0 gusting 2 15.0
2019-Aug-21 01:10 315 15.0
2019-Aug-21 01:05 270 15.0
2019-Aug-21 01:00 271 0 gusting 1 15.0
2019-Aug-21 00:55 333 0 gusting 2 15.0
2019-Aug-21 00:50 270 15.6
2019-Aug-21 00:40 270 0 gusting 1 15.6
2019-Aug-21 00:35 270 15.6
2019-Aug-21 00:20 230 15.6
2019-Aug-21 00:05 225 0 gusting 2 16.1
2019-Aug-21 00:00 270 0 gusting 2 16.1
2019-Aug-20 23:45 204 16.1
2019-Aug-20 23:35 228 16.7
2019-Aug-20 23:30 270 16.7
2019-Aug-20 23:25 267 16.7
2019-Aug-20 23:20 351 0 gusting 2 16.7
2019-Aug-20 23:15 274 0 gusting 2 16.7
2019-Aug-20 23:10 270 0 gusting 1 16.7
2019-Aug-20 23:05 225 16.7
2019-Aug-20 22:55 180 0 gusting 2 16.7
2019-Aug-20 22:45 180 0 gusting 2 16.7
2019-Aug-20 22:40 180 0 gusting 1 16.7
2019-Aug-20 22:30 045 16.7
2019-Aug-20 22:25 185 16.7
2019-Aug-20 22:20 275 16.7
2019-Aug-20 22:15 270 0 gusting 2 16.7
2019-Aug-20 22:00 315 0 gusting 5 16.7
2019-Aug-20 21:55 246 0 gusting 4 16.1
2019-Aug-20 21:50 094 16.1
2019-Aug-20 21:45 270 0 gusting 4 16.1
2019-Aug-20 21:40 248 16.1
2019-Aug-20 21:35 248 16.1
2019-Aug-20 21:30 248 16.1
2019-Aug-20 21:20 248 0 gusting 0 16.7
2019-Aug-20 21:15 248 16.7
2019-Aug-20 21:05 248 16.7
2019-Aug-20 20:50 248 16.1
2019-Aug-20 20:45 248 16.7
2019-Aug-20 20:40 248 16.7
2019-Aug-20 20:35 248 16.7
2019-Aug-20 20:30 248 16.7
2019-Aug-20 20:25 248 16.7
2019-Aug-20 20:15 248 16.7
2019-Aug-20 20:05 248 17.2
2019-Aug-20 20:00 248 17.2
2019-Aug-20 19:55 248 17.2
2019-Aug-20 19:50 248 17.2
2019-Aug-20 19:45 248 17.2
2019-Aug-20 19:30 180 17.8
2019-Aug-20 19:25 176 18.3
2019-Aug-20 19:20 138 18.3
2019-Aug-20 19:15 248 18.3
2019-Aug-20 19:10 248 0 gusting 0 18.9
2019-Aug-20 19:05 135 19.4
2019-Aug-20 18:55 180 19.4
2019-Aug-20 18:45 180 19.4
2019-Aug-20 18:40 180 20.0
2019-Aug-20 18:35 228 20.0
2019-Aug-20 18:30 248 0 gusting 2 20.0
2019-Aug-20 18:20 225 20.6
2019-Aug-20 18:10 225 20.6
2019-Aug-20 18:05 270 0 gusting 2 20.6
2019-Aug-20 17:55 315 0 gusting 1 21.1
2019-Aug-20 17:45 225 21.1
2019-Aug-20 17:40 219 0 gusting 2 21.1
2019-Aug-20 17:35 222 21.1
2019-Aug-20 17:25 269 0 gusting 2 21.1
2019-Aug-20 17:15 225 0 gusting 0 21.7
2019-Aug-20 17:10 180 21.7
2019-Aug-20 17:05 21.7
2019-Aug-20 16:55 253 0 gusting 4 21.7
2019-Aug-20 16:50 313 1 gusting 5 22.2
2019-Aug-20 16:45 258 0 gusting 5 22.8
2019-Aug-20 16:40 310 0 gusting 5 22.8
2019-Aug-20 16:35 252 0 gusting 4 22.8
2019-Aug-20 16:30 262 0 gusting 5 22.8
2019-Aug-20 16:15 315 2 gusting 6 22.8
2019-Aug-20 16:10 200 2 gusting 6 22.8
2019-Aug-20 16:05 135 0 gusting 1 22.8
2019-Aug-20 16:00 014 0 gusting 5 22.8
2019-Aug-20 15:55 282 0 gusting 6 22.8
2019-Aug-20 15:50 236 1 gusting 5 22.8
2019-Aug-20 15:45 357 1 gusting 7 22.8
2019-Aug-20 15:40 311 3 gusting 7 22.8
2019-Aug-20 15:15 044 0 gusting 6 22.8
2019-Aug-20 15:10 309 2 gusting 6 22.8
2019-Aug-20 15:00 306 1 gusting 8 23.3
2019-Aug-20 14:50 270 1 gusting 4 22.8
2019-Aug-20 14:40 291 4 gusting 11 22.8
2019-Aug-20 14:35 317 0 gusting 4 22.8
2019-Aug-20 14:30 190 0 gusting 6 22.8
2019-Aug-20 14:15 186 1 gusting 6 23.3
2019-Aug-20 14:05 180 5 gusting 8 22.8
2019-Aug-20 14:00 225 3 gusting 6 22.8
2019-Aug-20 13:55 225 2 gusting 11 22.8
2019-Aug-20 13:50 180 5 gusting 10 22.2
2019-Aug-20 13:40 139 5 gusting 13 22.2
2019-Aug-20 13:30 178 3 gusting 10 22.2
2019-Aug-20 13:15 222 7 gusting 13 23.3
2019-Aug-20 13:00 223 6 gusting 12 23.9
2019-Aug-20 12:55 180 5 gusting 13 23.9
2019-Aug-20 12:50 266 4 gusting 13 23.9
2019-Aug-20 12:45 180 8 gusting 13 23.3
2019-Aug-20 12:35 182 5 gusting 12 23.3
2019-Aug-20 12:30 312 5 gusting 11 22.8
2019-Aug-20 12:20 266 6 gusting 11 22.8
2019-Aug-20 12:15 312 5 gusting 13 23.3
2019-Aug-20 12:05 225 6 gusting 10 22.8
2019-Aug-20 12:00 223 6 gusting 15 22.8
2019-Aug-20 11:50 180 6 gusting 14 22.8
2019-Aug-20 11:45 223 7 gusting 14 22.8
2019-Aug-20 11:40 226 6 gusting 13 22.8
2019-Aug-20 11:30 139 6 gusting 14 22.8
2019-Aug-20 11:25 200 6 gusting 14 22.2
2019-Aug-20 11:20 025 5 gusting 15 22.2
2019-Aug-20 11:15 140 7 gusting 15 22.2
2019-Aug-20 11:10 180 6 gusting 13 22.2
2019-Aug-20 11:05 180 2 gusting 11 22.2
2019-Aug-20 10:50 225 6 gusting 13 21.7
2019-Aug-20 10:40 225 7 gusting 14 21.7
2019-Aug-20 10:30 204 5 gusting 13 21.1
2019-Aug-20 10:25 180 5 gusting 13 21.1
2019-Aug-20 10:20 309 7 gusting 14 21.1
2019-Aug-20 10:15 200 8 gusting 14 21.1
2019-Aug-20 10:05 225 7 gusting 14 21.1
2019-Aug-20 09:55 225 6 gusting 11 21.1
2019-Aug-20 09:45 180 6 gusting 14 21.1
2019-Aug-20 09:40 185 8 gusting 14 21.1
2019-Aug-20 09:25 104 3 gusting 11 21.1
2019-Aug-20 09:20 218 6 gusting 13 21.1
2019-Aug-20 09:15 228 4 gusting 11 21.1
2019-Aug-20 09:10 200 6 gusting 13 20.6
2019-Aug-20 09:05 202 6 gusting 11 20.6
2019-Aug-20 09:00 220 5 gusting 14 20.6
2019-Aug-20 08:55 222 5 gusting 14 20.6
2019-Aug-20 08:35 244 4 gusting 14 20.0
2019-Aug-20 08:25 308 4 gusting 12 20.0
2019-Aug-20 08:20 225 4 gusting 13 20.0
2019-Aug-20 08:15 225 6 gusting 13 20.0
2019-Aug-20 08:05 180 5 gusting 10 19.4
2019-Aug-20 08:00 180 5 gusting 12 19.4
2019-Aug-20 07:55 182 4 gusting 12 19.4
2019-Aug-20 07:50 203 5 gusting 12 19.4
2019-Aug-20 07:45 183 6 gusting 12 19.4
2019-Aug-20 07:40 227 4 gusting 13 19.4
2019-Aug-20 07:35 219 6 gusting 13 19.4
2019-Aug-20 07:30 182 6 gusting 12 19.4
2019-Aug-20 07:25 244 4 gusting 12 18.9
2019-Aug-20 07:15 180 5 gusting 12 18.9
2019-Aug-20 07:10 180 6 gusting 13 18.9
2019-Aug-20 07:05 180 6 gusting 11 18.3
2019-Aug-20 07:00 204 4 gusting 11 18.3
2019-Aug-20 06:55 131 5 gusting 10 18.3
2019-Aug-20 06:50 176 4 gusting 10 17.8
2019-Aug-20 06:45 184 2 gusting 8 17.8
2019-Aug-20 06:40 241 4 gusting 8 17.8
2019-Aug-20 06:35 268 3 gusting 8 17.8
2019-Aug-20 06:30 177 5 gusting 10 17.8
2019-Aug-20 06:25 183 2 gusting 7 17.2
2019-Aug-20 06:20 186 3 gusting 6 17.2
2019-Aug-20 06:15 183 2 gusting 8 17.2
2019-Aug-20 06:10 231 1 gusting 6 17.2
2019-Aug-20 06:05 225 2 gusting 6 17.2
2019-Aug-20 06:00 225 3 gusting 7 17.2
2019-Aug-20 05:45 180 2 gusting 8 16.7
2019-Aug-20 05:35 225 4 gusting 8 16.7
2019-Aug-20 05:25 247 3 gusting 6 16.1
2019-Aug-20 05:20 225 2 gusting 5 16.1
2019-Aug-20 05:15 262 1 gusting 5 16.1
2019-Aug-20 05:10 225 2 gusting 8 15.6
2019-Aug-20 05:00 180 2 gusting 7 15.6
2019-Aug-20 04:55 225 2 gusting 6 15.6
2019-Aug-20 04:45 238 1 gusting 6 15.6
2019-Aug-20 04:30 265 2 gusting 6 15.0
2019-Aug-20 04:25 221 1 gusting 4 15.0
2019-Aug-20 04:20 222 0 gusting 6 15.0
2019-Aug-20 04:10 222 2 gusting 6 15.0
2019-Aug-20 04:05 202 2 gusting 6 15.0
2019-Aug-20 04:00 222 2 gusting 6 15.0